^^

..:: Storico WU ::..




Lo storico viene creato da WUnderground con i dati che la stazione Meteomincio invia al loro server. L' aggiornamento viene fatto ogni 5 minuti circa, tuttavia possono esserci intervalli pił ampi a causa di errori, interruzioni di servizio o problemi nell' invio tramite FTP.


Storico stazione MeteoMincio
Giorno Sommario per Agosto 12, 2022 Unità:  Inglese    Metrico   Entrambi
Giorno Settimana Mese Anno
  Max: Min: Media:
Temperatura: 84.2 °F 64.4 °F 73.2 °F
Dew Point: 66.2 °F 57.2 °F 62.8 °F
Umidità: 92% 46% 72%
Velocità vento: 22.4mph 0mph 6.7mph
Raffica: 29.8mph - -
Direzione- - East
Pressione: 30 in 29.9 in -
Precipitazioni: 0.45 in    
 
 
Tabulato Dati per Agosto 12, 2022
Ora Temperatura Dew Point Pressione Direzione Velocità vento Raffica Umidità Intensità pioggia (oraria) Info solare Situazione
00:04 75.2 °F 60.8 °F 30 in NNE 8.7 mph 11.8 mph 64% 0 in 0.00 W/m2 unknown
00:09 75.2 °F 62.6 °F 30 in NNE 5 mph 11.8 mph 65% 0 in 0.00 W/m2 unknown
00:14 75.2 °F 62.6 °F 30 in North 7.5 mph 11.8 mph 67% 0 in 0.00 W/m2 unknown
00:19 73.4 °F 62.6 °F 30 in North 9.3 mph 12.4 mph 67% 0 in 0.00 W/m2 unknown
00:24 73.4 °F 62.6 °F 30 in North 10.6 mph 14.9 mph 68% 0 in 0.00 W/m2 unknown
00:29 73.4 °F 60.8 °F 30 in NE 10.6 mph 14.9 mph 67% 0 in 0.00 W/m2 unknown
00:34 73.4 °F 60.8 °F 30 in NE 10.6 mph 14.9 mph 64% 0 in 0.00 W/m2 unknown
00:39 71.6 °F 60.8 °F 30 in NE 8.1 mph 14.9 mph 67% 0 in 0.00 W/m2 unknown
00:44 71.6 °F 60.8 °F 30 in NNE 8.7 mph 12.4 mph 72% 0 in 0.00 W/m2 unknown
00:49 69.8 °F 60.8 °F 30 in NNE 6.8 mph 13 mph 75% 0.01 in 0.00 W/m2 unknown
00:54 69.8 °F 62.6 °F 30 in NE 6.8 mph 9.3 mph 78% 0.01 in 0.00 W/m2 unknown
00:59 69.8 °F 62.6 °F 30 in NE 6.8 mph 9.3 mph 79% 0.02 in 0.00 W/m2 unknown
01:04 68 °F 62.6 °F 30 in NE 6.2 mph 8.7 mph 82% 0.02 in 0.00 W/m2 unknown
01:09 68 °F 62.6 °F 30 in NE 3.1 mph 8.1 mph 84% 0.02 in 0.00 W/m2 unknown
01:14 68 °F 62.6 °F 30 in NE 3.1 mph 3.7 mph 84% 0.02 in 0.00 W/m2 unknown
01:19 68 °F 62.6 °F 30 in ENE 3.1 mph 3.7 mph 84% 0.02 in 0.00 W/m2 unknown
01:24 68 °F 62.6 °F 30 in ENE 1.9 mph 3.7 mph 84% 0.03 in 0.00 W/m2 unknown
01:29 68 °F 64.4 °F 30 in SE 3.7 mph 5 mph 86% 0.03 in 0.00 W/m2 unknown
01:34 68 °F 62.6 °F 30 in SE 3.1 mph 5 mph 86% 0.03 in 0.00 W/m2 unknown
01:39 68 °F 62.6 °F 30 in SSE 3.7 mph 6.8 mph 86% 0.03 in 0.00 W/m2 unknown
01:44 68 °F 62.6 °F 30 in SSE 3.7 mph 6.8 mph 84% 0.04 in 0.00 W/m2 unknown
01:49 68 °F 60.8 °F 30 in SSE 3.7 mph 6.8 mph 81% 0.04 in 0.00 W/m2 unknown
01:54 68 °F 60.8 °F 30 in SSE 3.1 mph 6.8 mph 79% 0.03 in 0.00 W/m2 unknown
01:59 68 °F 60.8 °F 30 in SE 3.7 mph 6.2 mph 78% 0.03 in 0.00 W/m2 unknown
02:04 69.8 °F 60.8 °F 30 in SSE 3.1 mph 6.8 mph 76% 0.02 in 0.00 W/m2 unknown
02:09 69.8 °F 62.6 °F 30 in South 2.5 mph 6.8 mph 78% 0.02 in 0.00 W/m2 unknown
02:14 69.8 °F 62.6 °F 30 in SSE 2.5 mph 3.7 mph 79% 0.02 in 0.00 W/m2 unknown
02:19 68 °F 60.8 °F 30 in SSE 2.5 mph 5 mph 78% 0.02 in 0.00 W/m2 unknown
02:24 69.8 °F 62.6 °F 30 in SSE 2.5 mph 4.3 mph 78% 0.02 in 0.00 W/m2 unknown
02:29 69.8 °F 62.6 °F 30 in ESE 2.5 mph 3.7 mph 78% 0.02 in 0.00 W/m2 unknown
02:34 68 °F 62.6 °F 30 in East 3.1 mph 5 mph 79% 0.01 in 0.00 W/m2 unknown
02:39 68 °F 62.6 °F 30 in East 3.1 mph 5 mph 80% 0.01 in 0.00 W/m2 unknown
02:44 68 °F 62.6 °F 30 in ENE 3.7 mph 5 mph 80% 0.01 in 0.00 W/m2 unknown
02:49 68 °F 62.6 °F 30 in NE 1.9 mph 5 mph 81% 0 in 0.00 W/m2 unknown
02:54 68 °F 62.6 °F 30 in NNE 1.2 mph 3.1 mph 81% 0 in 0.00 W/m2 unknown
02:59 68 °F 62.6 °F 30 in Calm   1.9 mph 82% 0 in 0.00 W/m2 unknown
03:04 68 °F 62.6 °F 30 in Calm     82% 0 in 0.00 W/m2 unknown
03:09 68 °F 62.6 °F 30 in Calm     83% 0 in 0.00 W/m2 unknown
03:14 68 °F 62.6 °F 30 in North 3.1 mph 3.7 mph 83% 0 in 0.00 W/m2 unknown
03:19 68 °F 62.6 °F 30 in NNW 3.1 mph 3.7 mph 83% 0 in 0.00 W/m2 unknown
03:24 68 °F 62.6 °F 30 in NW 1.9 mph 3.7 mph 82% 0 in 0.00 W/m2 unknown
03:29 68 °F 62.6 °F 30 in NNW 2.5 mph 3.7 mph 82% 0 in 0.00 W/m2 unknown
03:34 68 °F 62.6 °F 30 in North 3.1 mph 3.7 mph 83% 0 in 0.00 W/m2 unknown
03:39 68 °F 62.6 °F 30 in North 3.7 mph 5 mph 83% 0 in 0.00 W/m2 unknown
03:44 68 °F 62.6 °F 30 in North 4.3 mph 6.2 mph 82% 0 in 0.00 W/m2 unknown
03:49 68 °F 62.6 °F 30 in North 5 mph 6.2 mph 82% 0 in 0.00 W/m2 unknown
03:54 68 °F 62.6 °F 30 in North 3.1 mph 5 mph 83% 0 in 0.00 W/m2 unknown
03:59 68 °F 62.6 °F 30 in North 1.9 mph 3.7 mph 83% 0 in 0.00 W/m2 unknown
04:04 68 °F 62.6 °F 30 in NNE 0.6 mph 3.1 mph 83% 0 in 0.00 W/m2 unknown
04:09 68 °F 62.6 °F 30 in NNE 1.9 mph 2.5 mph 84% 0 in 0.00 W/m2 unknown
04:14 68 °F 62.6 °F 30 in NE 1.9 mph 3.7 mph 84% 0 in 0.00 W/m2 unknown
04:19 66.2 °F 62.6 °F 30 in NE 3.1 mph 3.7 mph 84% 0 in 0.00 W/m2 unknown
04:24 66.2 °F 62.6 °F 29.9 in NNE 3.7 mph 5 mph 84% 0 in 0.00 W/m2 unknown
04:29 66.2 °F 62.6 °F 29.9 in NE 1.9 mph 5 mph 84% 0 in 0.00 W/m2 unknown
04:34 66.2 °F 62.6 °F 29.9 in NE 1.9 mph 2.5 mph 85% 0 in 0.00 W/m2 unknown
04:39 66.2 °F 62.6 °F 29.9 in NE 3.1 mph 3.7 mph 85% 0 in 0.00 W/m2 unknown
04:44 66.2 °F 62.6 °F 29.9 in NE 3.1 mph 3.7 mph 86% 0 in 0.00 W/m2 unknown
04:49 66.2 °F 62.6 °F 29.9 in NE 1.2 mph 3.1 mph 86% 0 in 0.00 W/m2 unknown
04:54 66.2 °F 62.6 °F 29.9 in NNE 1.2 mph 2.5 mph 86% 0 in 0.00 W/m2 unknown
04:59 66.2 °F 62.6 °F 29.9 in NNE 1.9 mph 2.5 mph 86% 0 in 0.00 W/m2 unknown
05:04 66.2 °F 62.6 °F 29.9 in NNE 1.9 mph 2.5 mph 86% 0 in 0.00 W/m2 unknown
05:09 66.2 °F 62.6 °F 29.9 in NNE 1.9 mph 3.1 mph 86% 0 in 0.00 W/m2 unknown
05:14 66.2 °F 62.6 °F 29.9 in NE 1.9 mph 3.7 mph 85% 0 in 0.00 W/m2 unknown
05:19 66.2 °F 62.6 °F 29.9 in NE 1.2 mph 3.1 mph 86% 0 in 0.00 W/m2 unknown
05:24 66.2 °F 62.6 °F 29.9 in Calm   1.9 mph 86% 0 in 0.00 W/m2 unknown
05:29 66.2 °F 62.6 °F 29.9 in Calm     86% 0 in 0.00 W/m2 unknown
05:34 66.2 °F 62.6 °F 29.9 in Calm     86% 0 in 0.00 W/m2 unknown
05:39 66.2 °F 62.6 °F 29.9 in Calm     86% 0 in 0.00 W/m2 unknown
05:44 66.2 °F 62.6 °F 29.9 in Calm     87% 0 in 0.00 W/m2 unknown
05:49 66.2 °F 62.6 °F 29.9 in NE 1.2 mph 3.1 mph 87% 0 in 0.00 W/m2 unknown
05:54 66.2 °F 62.6 °F 29.9 in NE 1.2 mph 3.7 mph 87% 0 in 0.00 W/m2 unknown
05:59 66.2 °F 62.6 °F 29.9 in NE 1.2 mph 3.1 mph 87% 0 in 0.00 W/m2 unknown
06:04 66.2 °F 62.6 °F 29.9 in ENE 2.5 mph 3.7 mph 88% 0 in 0.00 W/m2 unknown
06:09 66.2 °F 62.6 °F 29.9 in ENE 3.1 mph 3.7 mph 89% 0 in 0.00 W/m2 unknown
06:14 66.2 °F 62.6 °F 29.9 in ENE 4.3 mph 5 mph 89% 0 in 0.00 W/m2 unknown
06:19 66.2 °F 62.6 °F 29.9 in NE 5 mph 5 mph 89% 0 in 0.00 W/m2 unknown
06:24 66.2 °F 62.6 °F 29.9 in NE 3.7 mph 5 mph 89% 0 in 0.00 W/m2 unknown
06:29 66.2 °F 62.6 °F 29.9 in NE 3.7 mph 5 mph 89% 0 in 0.00 W/m2 unknown
06:34 68 °F 62.6 °F 29.9 in NE 3.1 mph 5 mph 88% 0 in 5.00 W/m2 unknown
06:39 68 °F 62.6 °F 29.9 in ENE 1.9 mph 3.7 mph 88% 0 in 12.00 W/m2 unknown
06:44 68 °F 62.6 °F 29.9 in ENE 1.9 mph 3.1 mph 88% 0 in 16.00 W/m2 unknown
06:49 66.2 °F 64.4 °F 29.9 in ENE 1.9 mph 2.5 mph 89% 0 in 23.00 W/m2 unknown
06:54 66.2 °F 64.4 °F 29.9 in East 2.5 mph 3.7 mph 89% 0 in 30.00 W/m2 unknown
06:59 66.2 °F 62.6 °F 29.9 in East 2.5 mph 3.7 mph 89% 0 in 37.00 W/m2 unknown
07:04 66.2 °F 64.4 °F 29.9 in NE 3.1 mph 3.7 mph 89% 0 in 47.00 W/m2 unknown
07:09 68 °F 64.4 °F 29.9 in ENE 3.7 mph 3.7 mph 89% 0 in 53.00 W/m2 unknown
07:14 68 °F 64.4 °F 29.9 in ENE 3.7 mph 5 mph 89% 0 in 67.00 W/m2 unknown
07:19 68 °F 64.4 °F 29.9 in ENE 4.3 mph 5 mph 88% 0 in 81.00 W/m2 unknown
07:24 68 °F 64.4 °F 29.9 in ENE 3.1 mph 5 mph 88% 0 in 91.00 W/m2 unknown
07:29 68 °F 64.4 °F 29.9 in ENE 3.1 mph 5 mph 88% 0 in 98.00 W/m2 unknown
07:34 68 °F 64.4 °F 29.9 in ENE 2.5 mph 5 mph 88% 0 in 114.00 W/m2 unknown
07:39 68 °F 64.4 °F 29.9 in ENE 1.9 mph 3.7 mph 88% 0 in 114.00 W/m2 unknown
07:44 68 °F 64.4 °F 29.9 in ENE 2.5 mph 3.7 mph 88% 0 in 90.00 W/m2 unknown
07:49 68 °F 64.4 °F 29.9 in ENE 3.1 mph 5 mph 87% 0 in 83.00 W/m2 unknown
07:54 69.8 °F 64.4 °F 29.9 in ENE 2.5 mph 5 mph 86% 0 in 72.00 W/m2 unknown
07:59 69.8 °F 64.4 °F 29.9 in ENE 1.9 mph 3.7 mph 86% 0 in 77.00 W/m2 unknown
08:04 69.8 °F 64.4 °F 29.9 in East 1.2 mph 3.1 mph 85% 0 in 81.00 W/m2 unknown
08:09 69.8 °F 64.4 °F 29.9 in ENE 1.2 mph 2.5 mph 84% 0 in 81.00 W/m2 unknown
08:14 69.8 °F 64.4 °F 29.9 in ENE 2.5 mph 3.7 mph 83% 0 in 98.00 W/m2 unknown
08:19 71.6 °F 64.4 °F 29.9 in ENE 2.5 mph 3.7 mph 83% 0 in 139.00 W/m2 unknown
08:24 71.6 °F 64.4 °F 29.9 in ESE 1.9 mph 3.7 mph 80% 0 in 165.00 W/m2 unknown
08:29 71.6 °F 64.4 °F 29.9 in ESE 2.5 mph 3.7 mph 79% 0 in 234.00 W/m2 unknown
08:34 71.6 °F 64.4 °F 29.9 in ESE 3.1 mph 3.7 mph 78% 0 in 193.00 W/m2 unknown
08:39 71.6 °F 64.4 °F 29.9 in ESE 3.1 mph 5 mph 78% 0 in 213.00 W/m2 unknown
08:44 73.4 °F 66.2 °F 29.9 in ESE 2.5 mph 5 mph 79% 0 in 341.00 W/m2 unknown
08:49 73.4 °F 64.4 °F 29.9 in ESE 5.6 mph 6.8 mph 77% 0 in 237.00 W/m2 unknown
08:54 73.4 °F 64.4 °F 29.9 in East 6.2 mph 8.1 mph 74% 0 in 287.00 W/m2 unknown
08:59 73.4 °F 64.4 °F 29.9 in East 6.8 mph 9.3 mph 72% 0 in 207.00 W/m2 unknown
09:04 73.4 °F 64.4 °F 29.9 in East 6.2 mph 8.7 mph 72% 0 in 186.00 W/m2 unknown
09:09 73.4 °F 64.4 °F 30 in ENE 6.8 mph 9.3 mph 73% 0 in 213.00 W/m2 unknown
09:14 73.4 °F 64.4 °F 30 in ENE 6.8 mph 9.3 mph 71% 0 in 258.00 W/m2 unknown
09:19 73.4 °F 64.4 °F 30 in ENE 7.5 mph 9.3 mph 72% 0 in 202.00 W/m2 unknown
09:24 73.4 °F 64.4 °F 30 in ENE 7.5 mph 9.3 mph 72% 0 in 195.00 W/m2 unknown
09:29 73.4 °F 64.4 °F 30 in East 8.1 mph 13 mph 72% 0 in 223.00 W/m2 unknown
09:34 73.4 °F 64.4 °F 30 in East 8.1 mph 13 mph 72% 0 in 223.00 W/m2 unknown
09:39 73.4 °F 64.4 °F 30 in East 8.7 mph 13 mph 71% 0 in 227.00 W/m2 unknown
09:44 73.4 °F 62.6 °F 30 in East 8.1 mph 13 mph 71% 0 in 253.00 W/m2 unknown
09:49 73.4 °F 64.4 °F 30 in East 6.8 mph 9.9 mph 71% 0 in 290.00 W/m2 unknown
09:54 75.2 °F 64.4 °F 30 in East 8.7 mph 10.6 mph 71% 0 in 290.00 W/m2 unknown
09:59 75.2 °F 64.4 °F 30 in East 8.1 mph 11.8 mph 69% 0 in 278.00 W/m2 unknown
10:04 75.2 °F 64.4 °F 30 in East 7.5 mph 11.8 mph 69% 0 in 374.00 W/m2 unknown
10:09 75.2 °F 62.6 °F 30 in East 8.7 mph 14.3 mph 68% 0 in 374.00 W/m2 unknown
10:14 75.2 °F 62.6 °F 30 in East 8.7 mph 14.3 mph 68% 0 in 225.00 W/m2 unknown
10:19 75.2 °F 62.6 °F 30 in ESE 8.7 mph 13 mph 67% 0 in 234.00 W/m2 unknown
10:24 75.2 °F 62.6 °F 30 in East 9.3 mph 14.9 mph 66% 0 in 246.00 W/m2 unknown
10:29 75.2 °F 62.6 °F 30 in East 9.3 mph 14.9 mph 66% 0 in 276.00 W/m2 unknown
10:34 75.2 °F 62.6 °F 30 in East 9.3 mph 14.3 mph 65% 0 in 345.00 W/m2 unknown
10:39 75.2 °F 62.6 °F 30 in East 9.3 mph 14.3 mph 65% 0 in 323.00 W/m2 unknown
10:44 75.2 °F 62.6 °F 30 in East 11.2 mph 14.9 mph 64% 0 in 318.00 W/m2 unknown
10:49 75.2 °F 62.6 °F 30 in East 11.2 mph 14.9 mph 63% 0 in 445.00 W/m2 unknown
10:54 77 °F 62.6 °F 30 in East 10.6 mph 14.9 mph 62% 0 in 327.00 W/m2 unknown
10:59 77 °F 62.6 °F 30 in East 11.2 mph 14.9 mph 62% 0 in 345.00 W/m2 unknown
11:04 77 °F 62.6 °F 30 in East 11.2 mph 14.9 mph 62% 0 in 367.00 W/m2 unknown
11:09 77 °F 64.4 °F 30 in East 11.2 mph 17.4 mph 62% 0 in 775.00 W/m2 unknown
11:14 78.8 °F 64.4 °F 30 in East 11.2 mph 16.8 mph 62% 0 in 777.00 W/m2 unknown
11:19 78.8 °F 64.4 °F 30 in East 11.2 mph 14.9 mph 62% 0 in 833.00 W/m2 unknown
11:24 78.8 °F 64.4 °F 30 in East 9.9 mph 14.9 mph 62% 0 in 733.00 W/m2 unknown
11:29 78.8 °F 64.4 °F 30 in East 12.4 mph 16.2 mph 62% 0 in 798.00 W/m2 unknown
11:34 78.8 °F 64.4 °F 30 in East 11.8 mph 17.4 mph 62% 0 in 759.00 W/m2 unknown
11:39 78.8 °F 64.4 °F 30 in East 9.9 mph 14.9 mph 61% 0 in 759.00 W/m2 unknown
11:44 78.8 °F 64.4 °F 30 in East 11.8 mph 16.2 mph 61% 0 in 367.00 W/m2 unknown
11:49 78.8 °F 64.4 °F 30 in East 9.9 mph 16.2 mph 61% 0 in 397.00 W/m2 unknown
11:54 78.8 °F 64.4 °F 30 in East 8.1 mph 14.9 mph 62% 0 in 396.00 W/m2 unknown
11:59 78.8 °F 64.4 °F 30 in ESE 11.2 mph 18.6 mph 63% 0 in 369.00 W/m2 unknown
12:04 77 °F 62.6 °F 30 in ESE 11.8 mph 18.6 mph 62% 0 in 315.00 W/m2 unknown
12:09 77 °F 64.4 °F 30 in ESE 11.8 mph 16.2 mph 64% 0 in 327.00 W/m2 unknown
12:14 77 °F 64.4 °F 30 in East 10.6 mph 16.2 mph 65% 0 in 348.00 W/m2 unknown
12:19 77 °F 64.4 °F 30 in ESE 9.9 mph 16.2 mph 65% 0 in 348.00 W/m2 unknown
12:24 78.8 °F 64.4 °F 30 in ESE 9.9 mph 16.8 mph 65% 0 in 807.00 W/m2 unknown
12:29 78.8 °F 64.4 °F 30 in ESE 11.2 mph 16.2 mph 62% 0 in 807.00 W/m2 unknown
12:34 80.6 °F 64.4 °F 30 in East 9.9 mph 16.8 mph 61% 0 in 526.00 W/m2 unknown
12:39 80.6 °F 64.4 °F 30 in ESE 13 mph 17.4 mph 60% 0 in 459.00 W/m2 unknown
12:44 80.6 °F 66.2 °F 29.9 in ESE 11.8 mph 14.9 mph 62% 0 in 682.00 W/m2 unknown
12:49 80.6 °F 66.2 °F 29.9 in ESE 8.7 mph 14.3 mph 61% 0 in 780.00 W/m2 unknown
12:54 80.6 °F 66.2 °F 29.9 in ESE 10.6 mph 14.3 mph 61% 0 in 853.00 W/m2 unknown
12:59 80.6 °F 66.2 °F 29.9 in ESE 11.8 mph 16.2 mph 61% 0 in 853.00 W/m2 unknown
13:04 80.6 °F 66.2 °F 29.9 in ESE 11.8 mph 16.2 mph 61% 0 in 494.00 W/m2 unknown
13:09 80.6 °F 64.4 °F 29.9 in East 8.7 mph 16.2 mph 61% 0 in 499.00 W/m2 unknown
13:14 78.8 °F 66.2 °F 29.9 in East 7.5 mph 11.8 mph 62% 0 in 501.00 W/m2 unknown
13:19 80.6 °F 66.2 °F 29.9 in East 9.3 mph 13 mph 62% 0 in 485.00 W/m2 unknown
13:24 78.8 °F 66.2 °F 29.9 in ESE 8.1 mph 13 mph 63% 0 in 427.00 W/m2 unknown
13:28 78.8 °F 66.2 °F 29.9 in ESE 10.6 mph 14.3 mph 62% 0 in 475.00 W/m2 unknown
13:34 78.8 °F 66.2 °F 29.9 in ESE 10.6 mph 16.2 mph 62% 0 in 475.00 W/m2 unknown
13:39 78.8 °F 66.2 °F 29.9 in ESE 11.2 mph 16.2 mph 62% 0 in 381.00 W/m2 unknown
13:44 78.8 °F 64.4 °F 29.9 in ESE 9.9 mph 16.2 mph 62% 0 in 378.00 W/m2 unknown
13:49 78.8 °F 66.2 °F 29.9 in ESE 8.1 mph 14.3 mph 64% 0 in 415.00 W/m2 unknown
13:54 78.8 °F 66.2 °F 29.9 in ESE 8.7 mph 14.3 mph 63% 0 in 529.00 W/m2 unknown
13:59 78.8 °F 64.4 °F 29.9 in ESE 8.1 mph 14.3 mph 61% 0 in 450.00 W/m2 unknown
14:04 80.6 °F 66.2 °F 29.9 in East 8.1 mph 13 mph 62% 0 in 577.00 W/m2 unknown
14:09 80.6 °F 66.2 °F 29.9 in ESE 8.7 mph 16.2 mph 62% 0 in 879.00 W/m2 unknown
14:14 82.4 °F 66.2 °F 29.9 in ESE 9.9 mph 16.2 mph 61% 0 in 824.00 W/m2 unknown
14:19 82.4 °F 64.4 °F 29.9 in ESE 8.7 mph 16.2 mph 57% 0 in 812.00 W/m2 unknown
14:24 82.4 °F 64.4 °F 29.9 in SE 7.5 mph 10.6 mph 54% 0 in 803.00 W/m2 unknown
14:29 82.4 °F 64.4 °F 29.9 in ESE 9.3 mph 14.3 mph 54% 0 in 796.00 W/m2 unknown
14:34 82.4 °F 64.4 °F 29.9 in East 8.7 mph 14.3 mph 54% 0 in 798.00 W/m2 unknown
14:39 82.4 °F 62.6 °F 29.9 in East 9.3 mph 14.3 mph 53% 0 in 802.00 W/m2 unknown
14:44 82.4 °F 64.4 °F 29.9 in ESE 10.6 mph 14.9 mph 54% 0 in 788.00 W/m2 unknown
14:49 82.4 °F 64.4 °F 29.9 in ESE 10.6 mph 16.2 mph 54% 0 in 786.00 W/m2 unknown
14:54 82.4 °F 62.6 °F 29.9 in ESE 10.6 mph 14.9 mph 53% 0 in 765.00 W/m2 unknown
14:59 82.4 °F 64.4 °F 29.9 in ESE 9.3 mph 13.7 mph 54% 0 in 765.00 W/m2 unknown
15:04 82.4 °F 62.6 °F 29.9 in East 8.1 mph 13 mph 52% 0 in 765.00 W/m2 unknown
15:09 82.4 °F 64.4 °F 29.9 in ESE 6.8 mph 10.6 mph 52% 0 in 754.00 W/m2 unknown
15:14 82.4 °F 64.4 °F 29.9 in SE 6.8 mph 13 mph 53% 0 in 754.00 W/m2 unknown
15:19 84.2 °F 62.6 °F 29.9 in East 7.5 mph 14.3 mph 51% 0 in 738.00 W/m2 unknown
15:24 84.2 °F 62.6 °F 29.9 in East 9.9 mph 14.3 mph 51% 0 in 731.00 W/m2 unknown
15:29 84.2 °F 62.6 °F 29.9 in ESE 10.6 mph 16.2 mph 50% 0 in 724.00 W/m2 unknown
15:34 84.2 °F 62.6 °F 29.9 in East 9.9 mph 16.2 mph 51% 0 in 719.00 W/m2 unknown
15:39 84.2 °F 62.6 °F 29.9 in ESE 9.9 mph 16.2 mph 50% 0 in 712.00 W/m2 unknown
15:44 84.2 °F 62.6 °F 29.9 in East 8.7 mph 14.3 mph 50% 0 in 703.00 W/m2 unknown
15:48 84.2 °F 62.6 °F 29.9 in East 8.7 mph 14.3 mph 49% 0 in 694.00 W/m2 unknown
15:54 84.2 °F 62.6 °F 29.9 in East 8.7 mph 13 mph 49% 0 in 679.00 W/m2 unknown
15:59 84.2 °F 62.6 °F 29.9 in ENE 9.3 mph 14.9 mph 49% 0 in 673.00 W/m2 unknown
16:04 84.2 °F 62.6 °F 29.9 in East 9.3 mph 14.9 mph 49% 0 in 663.00 W/m2 unknown
16:09 84.2 °F 62.6 °F 29.9 in ESE 8.1 mph 14.9 mph 49% 0 in 661.00 W/m2 unknown
16:14 84.2 °F 62.6 °F 29.9 in East 8.1 mph 11.8 mph 49% 0 in 642.00 W/m2 unknown
16:19 84.2 °F 62.6 °F 29.9 in ESE 8.7 mph 13 mph 48% 0 in 636.00 W/m2 unknown
16:24 84.2 °F 60.8 °F 29.9 in East 9.9 mph 13 mph 47% 0 in 624.00 W/m2 unknown
16:29 84.2 °F 60.8 °F 29.9 in ENE 8.7 mph 13 mph 47% 0 in 619.00 W/m2 unknown
16:34 84.2 °F 60.8 °F 29.9 in East 8.1 mph 11.8 mph 47% 0 in 606.00 W/m2 unknown
16:39 84.2 °F 60.8 °F 29.9 in ESE 6.8 mph 10.6 mph 47% 0 in 591.00 W/m2 unknown
16:44 84.2 °F 60.8 °F 29.9 in ESE 8.7 mph 10.6 mph 47% 0 in 580.00 W/m2 unknown
16:49 84.2 °F 60.8 °F 29.9 in ESE 8.7 mph 14.3 mph 47% 0 in 566.00 W/m2 unknown
16:54 82.4 °F 60.8 °F 29.9 in East 9.3 mph 14.3 mph 46% 0 in 554.00 W/m2 unknown
16:59 84.2 °F 60.8 °F 29.9 in East 8.7 mph 14.3 mph 48% 0 in 545.00 W/m2 unknown
17:04 84.2 °F 60.8 °F 29.9 in East 8.7 mph 11.8 mph 47% 0 in 527.00 W/m2 unknown
17:09 84.2 °F 60.8 °F 29.9 in ESE 7.5 mph 11.8 mph 47% 0 in 517.00 W/m2 unknown
17:14 84.2 °F 60.8 °F 29.9 in East 7.5 mph 10.6 mph 47% 0 in 510.00 W/m2 unknown
17:19 82.4 °F 60.8 °F 29.9 in ESE 8.7 mph 11.8 mph 47% 0 in 494.00 W/m2 unknown
17:24 84.2 °F 60.8 °F 29.9 in ESE 6.2 mph 11.8 mph 46% 0 in 487.00 W/m2 unknown
17:29 84.2 °F 62.6 °F 29.9 in East 9.3 mph 11.8 mph 48% 0 in 478.00 W/m2 unknown
17:34 84.2 °F 60.8 °F 29.9 in ESE 7.5 mph 11.8 mph 47% 0 in 469.00 W/m2 unknown
17:39 84.2 °F 60.8 °F 29.9 in ESE 7.5 mph 9.3 mph 48% 0 in 371.00 W/m2 unknown
17:44 82.4 °F 60.8 °F 29.9 in ESE 6.8 mph 9.3 mph 48% 0 in 199.00 W/m2 unknown
17:49 82.4 °F 60.8 °F 29.9 in ESE 6.2 mph 8.7 mph 47% 0 in 202.00 W/m2 unknown
17:54 82.4 °F 60.8 °F 29.9 in East 3.7 mph 6.2 mph 50% 0 in 197.00 W/m2 unknown
17:59 82.4 °F 62.6 °F 29.9 in East 5.6 mph 8.1 mph 51% 0 in 167.00 W/m2 unknown
18:04 82.4 °F 62.6 °F 29.9 in East 6.2 mph 8.1 mph 52% 0 in 132.00 W/m2 unknown
18:09 80.6 °F 60.8 °F 29.9 in East 5.6 mph 8.1 mph 51% 0 in 114.00 W/m2 unknown
18:14 80.6 °F 60.8 °F 29.9 in East 7.5 mph 9.9 mph 51% 0 in 107.00 W/m2 unknown
18:19 80.6 °F 60.8 °F 29.9 in ENE 8.1 mph 11.8 mph 51% 0 in 102.00 W/m2 unknown
18:24 80.6 °F 60.8 °F 29.9 in ENE 7.5 mph 12.4 mph 51% 0 in 97.00 W/m2 unknown
18:29 80.6 °F 60.8 °F 29.9 in ENE 11.2 mph 14.9 mph 51% 0 in 90.00 W/m2 unknown
18:34 80.6 °F 60.8 °F 29.9 in ENE 10.6 mph 17.4 mph 49% 0 in 90.00 W/m2 unknown
18:39 80.6 °F 59 °F 29.9 in East 11.2 mph 16.8 mph 47% 0 in 69.00 W/m2 unknown
18:44 80.6 °F 59 °F 29.9 in ENE 11.2 mph 14.3 mph 47% 0 in 44.00 W/m2 unknown
18:49 80.6 °F 59 °F 29.9 in ENE 8.7 mph 14.3 mph 48% 0 in 40.00 W/m2 unknown
18:54 80.6 °F 59 °F 29.9 in ENE 11.8 mph 18.6 mph 49% 0 in 23.00 W/m2 unknown
18:59 80.6 °F 59 °F 29.9 in NE 14.9 mph 24.9 mph 51% 0 in 32.00 W/m2 unknown
19:04 78.8 °F 60.8 °F 29.9 in NE 14.9 mph 25.5 mph 54% 0 in 40.00 W/m2 unknown
19:09 78.8 °F 60.8 °F 29.9 in NE 18.6 mph 29.8 mph 57% 0 in 39.00 W/m2 unknown
19:14 77 °F 60.8 °F 29.9 in ENE 18.6 mph 29.8 mph 60% 0 in 54.00 W/m2 unknown
19:19 75.2 °F 60.8 °F 29.9 in ENE 22.4 mph 29.8 mph 61% 0 in 69.00 W/m2 unknown
19:24 75.2 °F 60.8 °F 29.9 in ENE 21.7 mph 29.8 mph 62% 0 in 97.00 W/m2 unknown
19:29 75.2 °F 60.8 °F 29.9 in ENE 20.5 mph 28 mph 62% 0 in 107.00 W/m2 unknown
19:34 73.4 °F 60.8 °F 29.9 in ENE 18.6 mph 26.1 mph 62% 0 in 107.00 W/m2 unknown
19:39 73.4 °F 60.8 °F 29.9 in ENE 18 mph 26.1 mph 62% 0 in 74.00 W/m2 unknown
19:44 73.4 °F 59 °F 29.9 in ENE 19.3 mph 26.7 mph 60% 0 in 54.00 W/m2 unknown
19:49 73.4 °F 57.2 °F 29.9 in ENE 19.9 mph 26.7 mph 61% 0 in 40.00 W/m2 unknown
19:54 71.6 °F 59 °F 29.9 in ENE 15.5 mph 26.1 mph 65% 0 in 26.00 W/m2 unknown
19:59 71.6 °F 59 °F 29.9 in ENE 13 mph 23 mph 67% 0 in 12.00 W/m2 unknown
20:04 69.8 °F 59 °F 29.9 in ENE 13 mph 19.9 mph 68% 0 in 7.00 W/m2 unknown
20:09 69.8 °F 59 °F 29.9 in ENE 11.8 mph 18 mph 68% 0 in 7.00 W/m2 unknown
20:14 69.8 °F 59 °F 29.9 in ENE 11.8 mph 16.2 mph 68% 0 in 7.00 W/m2 unknown
20:19 69.8 °F 59 °F 29.9 in East 14.3 mph 19.9 mph 68% 0 in 0.00 W/m2 unknown
20:24 69.8 °F 59 °F 29.9 in East 13.7 mph 19.9 mph 67% 0 in 0.00 W/m2 unknown
20:29 69.8 °F 59 °F 29.9 in ENE 8.7 mph 19.9 mph 68% 0 in 0.00 W/m2 unknown
20:34 69.8 °F 60.8 °F 30 in ENE 9.3 mph 11.8 mph 74% 0.02 in 0.00 W/m2 unknown
20:39 69.8 °F 62.6 °F 30 in NNE 6.2 mph 11.8 mph 82% 0.09 in 0.00 W/m2 unknown
20:44 68 °F 62.6 °F 30 in NE 6.8 mph 9.3 mph 84% 0.17 in 0.00 W/m2 unknown
20:49 66.2 °F 62.6 °F 30 in ENE 7.5 mph 9.9 mph 86% 0.21 in 0.00 W/m2 unknown
20:54 66.2 °F 60.8 °F 30 in NE 8.7 mph 11.8 mph 87% 0.24 in 0.00 W/m2 unknown
20:59 66.2 °F 62.6 °F 30 in NE 9.3 mph 11.8 mph 88% 0.28 in 0.00 W/m2 unknown
21:04 64.4 °F 60.8 °F 30 in NE 8.7 mph 11.8 mph 88% 0.28 in 0.00 W/m2 unknown
21:09 64.4 °F 62.6 °F 30 in ENE 8.1 mph 11.8 mph 89% 0.28 in 0.00 W/m2 unknown
21:14 64.4 °F 60.8 °F 30 in NE 6.8 mph 11.8 mph 88% 0.29 in 0.00 W/m2 unknown
21:19 64.4 °F 62.6 °F 30 in NE 7.5 mph 8.7 mph 89% 0.3 in 0.00 W/m2 unknown
21:24 64.4 °F 62.6 °F 30 in ENE 7.5 mph 9.3 mph 89% 0.32 in 0.00 W/m2 unknown
21:29 64.4 °F 60.8 °F 30 in ENE 6.2 mph 8.7 mph 89% 0.35 in 0.00 W/m2 unknown
21:34 64.4 °F 60.8 °F 30 in ENE 3.1 mph 5 mph 90% 0.35 in 0.00 W/m2 unknown
21:39 64.4 °F 60.8 °F 30 in ENE 7.5 mph 11.8 mph 90% 0.32 in 0.00 W/m2 unknown
21:44 64.4 °F 60.8 °F 30 in East 7.5 mph 9.3 mph 90% 0.27 in 0.00 W/m2 unknown
21:49 64.4 °F 60.8 °F 30 in East 6.2 mph 9.3 mph 90% 0.22 in 0.00 W/m2 unknown
21:54 64.4 °F 60.8 °F 30 in ESE 4.3 mph 6.8 mph 90% 0.2 in 0.00 W/m2 unknown
21:59 64.4 °F 62.6 °F 30 in ESE 4.3 mph 6.8 mph 90% 0.17 in 0.00 W/m2 unknown
22:04 64.4 °F 62.6 °F 30 in ESE 3.7 mph 6.8 mph 90% 0.13 in 0.00 W/m2 unknown
22:09 64.4 °F 62.6 °F 30 in ESE 3.7 mph 6.2 mph 90% 0.13 in 0.00 W/m2 unknown
22:14 64.4 °F 62.6 °F 30 in East 3.7 mph 6.2 mph 90% 0.13 in 0.00 W/m2 unknown
22:19 64.4 °F 62.6 °F 30 in East 3.1 mph 6.2 mph 90% 0.12 in 0.00 W/m2 unknown
22:24 64.4 °F 62.6 °F 30 in ENE 3.7 mph 6.2 mph 90% 0.11 in 0.00 W/m2 unknown
22:29 66.2 °F 62.6 °F 30 in NNE 3.1 mph 6.2 mph 91% 0.08 in 0.00 W/m2 unknown
22:34 66.2 °F 62.6 °F 30 in North 3.7 mph 5 mph 91% 0.06 in 0.00 W/m2 unknown
22:39 66.2 °F 62.6 °F 30 in SSW 1.9 mph 3.7 mph 91% 0.06 in 0.00 W/m2 unknown
22:44 66.2 °F 62.6 °F 30 in SSE 1.9 mph 3.7 mph 91% 0.04 in 0.00 W/m2 unknown
22:49 66.2 °F 62.6 °F 30 in South 2.5 mph 3.7 mph 91% 0.01 in 0.00 W/m2 unknown
22:54 66.2 °F 62.6 °F 30 in SSW 1.2 mph 3.1 mph 91% 0 in 0.00 W/m2 unknown
22:59 66.2 °F 62.6 °F 30 in North 2.5 mph 3.7 mph 91% 0 in 0.00 W/m2 unknown
23:04 66.2 °F 62.6 °F 30 in North 1.9 mph 3.1 mph 92% 0 in 0.00 W/m2 unknown
23:09 66.2 °F 62.6 °F 30 in North 1.2 mph 2.5 mph 92% 0 in 0.00 W/m2 unknown
23:14 66.2 °F 62.6 °F 30 in North 2.5 mph 3.7 mph 92% 0 in 0.00 W/m2 unknown
23:19 66.2 °F 62.6 °F 30 in NNE 3.7 mph 5 mph 92% 0 in 0.00 W/m2 unknown
23:24 64.4 °F 62.6 °F 30 in NNE 3.7 mph 5 mph 92% 0 in 0.00 W/m2 unknown
23:29 64.4 °F 62.6 °F 30 in NE 3.7 mph 5 mph 91% 0 in 0.00 W/m2 unknown
23:34 64.4 °F 62.6 °F 30 in NE 3.1 mph 5 mph 92% 0 in 0.00 W/m2 unknown
23:39 64.4 °F 62.6 °F 30 in ENE 1.2 mph 5 mph 92% 0 in 0.00 W/m2 unknown
23:44 64.4 °F 62.6 °F 30 in NE 4.3 mph 5 mph 91% 0 in 0.00 W/m2 unknown
23:49 64.4 °F 62.6 °F 30 in NE 4.3 mph 5 mph 91% 0 in 0.00 W/m2 unknown
23:54 64.4 °F 62.6 °F 30 in North 2.5 mph 5 mph 92% 0 in 0.00 W/m2 unknown
23:59 64.4 °F 62.6 °F 30 in WNW 2.5 mph 3.7 mph 91% 0 in 0.00 W/m2 unknown
Stazione Meteorologica MeteoMincio Rivalta s/M (MN)
Con i complimenti di Weather Underground - 4 mb



METEO PILLOLE
Maggior quantità di pioggia caduta in 12 ore in Italia
Rossiglione nell'entroterra genovese dalle 5.40 alle 17.40
Il 4 ottobre 2021 caddero 740.6mm di pioggia.
Share

Non seguire questo link o sarai bannato dal sito!